This demonstration page uses our WeatherBlox Daily Observations layout. Learn more.

39.29038, -76.61219

Hourly Observations for July 31, 2019

Temp ( °F °C ) Dew Point ( °F °C ) Humidity (%) Winds ( mph kmh ) Pressure ( in mb ) Visibility ( mi km ) Precip ( " mm )
12:54 am 00:54 undefined 80 26.7 68 20 67 67 undefined N/A 30 1016 N/A 0 0
1:54 am 01:54 undefined 80 26.7 67 19.4 64 64 undefined N/A 30.01 1016 N/A 0 0
2:54 am 02:54 undefined 80 26.7 66 18.9 62 62 undefined N/A 30 1016 N/A 0 0
3:54 am 03:54 undefined 79 26.1 66 18.9 65 65 undefined N/A 30 1016 N/A 0 0
4:54 am 04:54 undefined 79 26.1 66 18.9 65 65 undefined N/A 30 1016 N/A 0 0
5:54 am 05:54 undefined 77 25 66 18.9 69 69 undefined N/A 30.01 1016 N/A 0 0
6:54 am 06:54 undefined 77 25 66 18.9 69 69 undefined N/A 30.02 1017 N/A 0 0
7:54 am 07:54 undefined 79 26.1 67 19.4 67 67 undefined N/A 30.02 1017 N/A 0 0
8:54 am 08:54 undefined 81 27.2 66 18.9 61 61 undefined N/A 30.04 1017 N/A 0 0
9:54 am 09:54 undefined 84 28.9 66 18.9 55 55 undefined N/A 30.04 1017 N/A 0 0
10:54 am 10:54 undefined 87 30.6 67 19.4 51 51 undefined N/A 30.04 1017 N/A 0 0
11:54 am 11:54 undefined 88 31.1 67 19.4 50 50 undefined N/A 30.04 1017 N/A 0 0
12:54 pm 12:54 undefined 88 31.1 67 19.4 50 50 undefined N/A 30.05 1018 N/A 0 0
1:54 pm 13:54 undefined 87 30.6 68 20 53 53 undefined N/A 30.04 1017 N/A 0 0
2:54 pm 14:54 undefined 88 31.1 68 20 52 52 undefined N/A 30.02 1017 N/A 0 0
3:54 pm 15:54 undefined 88 31.1 66 18.9 48 48 undefined N/A 29.99 1016 N/A 0 0
4:54 pm 16:54 undefined 88 31.1 66 18.9 48 48 undefined N/A 29.99 1016 N/A 0 0
5:54 pm 17:54 undefined 86 30 66 18.9 51 51 undefined N/A 29.99 1016 N/A 0 0
6:54 pm 18:54 undefined 84 28.9 64 17.8 51 51 undefined N/A 30.01 1016 N/A 0 0
7:54 pm 19:54 undefined 84 28.9 65 18.3 53 53 undefined N/A 30.02 1017 N/A 0 0
8:54 pm 20:54 undefined 82 27.8 66 18.9 58 58 undefined N/A 30.02 1017 N/A 0 0
9:54 pm 21:54 undefined 81 27.2 67 19.4 62 62 undefined N/A 30.04 1017 N/A 0 0
10:54 pm 22:54 undefined 80 26.7 68 20 67 67 undefined N/A 30.04 1017 N/A 0 0
11:54 pm 23:54 undefined 79 26.1 67 19.4 67 67 undefined N/A 30.04 1017 N/A 0 0

Powered by AerisWeather